[[{"header":{"parameterUnit":"m.s-1","parameterCategory":1,"la1":30.2992,"la2":30.254,"lo1":-89.0895,"lo2":-89.0443,"dy":0.0025,"dx":0.0025,"nx":19,"ny":19,"refTime":"2026-05-19T09:00:00:Z","depth":0,"parameterNumber":2,"parameterNumberName":"U-component_of_WINDS"},"data":[0,0,0,-4.7869,-4.7872,-4.8001,-4.8002,-4.8174,-4.8176,0,0,0,0,0,0,0,0,0,0,0,-4.7836,-4.7837,-4.7868,-4.7872,-4.8001,-4.8002,-4.8174,-4.8176,0,0,0,0,0,0,0,0,0,0,0,-4.7835,-4.7837,-4.7838,-4.7872,-4.8001,-4.8002,-4.8174,-4.8073,0,0,0,0,0,0,0,0,0,0,-4.7946,-4.7921,-4.7836,-4.7838,-4.7873,-4.8001,-4.8002,-4.8068,-4.8079,-4.8119,0,-4.8157,0,-4.8169,-4.8188,-4.8189,0,0,0,-4.7867,-4.7912,-4.7942,-4.7839,-4.7874,-4.8001,-4.7942,-4.8074,-4.8087,-4.8134,-4.8159,-4.8165,-4.8172,-4.8189,-4.819,-4.8436,-4.8437,0,0,-4.786,-4.7861,-4.7933,-4.7951,-4.7933,-4.7938,-4.7946,-4.8082,-4.8109,-4.816,-4.8169,-4.8175,-4.819,-4.8192,-4.8435,-4.8436,0,0,0,-4.7843,-4.7857,-4.7883,-4.7944,-4.7967,-4.7941,-4.7951,-4.8103,-4.8111,-4.8171,-4.8177,-4.8191,-4.8194,-4.8433,-4.8435,-4.8502,0,0,0,-4.7838,-4.7846,-4.7881,-4.7882,-4.7964,-4.8037,-4.7969,-4.8102,-4.8117,-4.8176,-4.8191,-4.8195,-4.8432,-4.8434,-4.8497,-4.8533,0,0,0,-4.7825,-4.7845,-4.7866,-4.7882,-4.7938,-4.8034,-4.8051,-4.8105,-4.8121,-4.8189,-4.8196,-4.8431,-4.8434,-4.8493,-4.8525,-4.8597,0,0,0,-4.7811,-4.7923,-4.7867,-4.7994,-4.7937,-4.8076,-4.805,-4.8153,-4.8219,-4.8192,-4.8432,-4.8435,-4.8491,-4.8521,-4.8592,-4.8655,-4.8682,0,0,-4.7953,-4.794,-4.8015,-4.7968,-4.8118,-4.8056,-4.8215,-4.8274,-4.8279,-4.8383,-4.8389,-4.8499,-4.8525,-4.8596,-4.8839,-4.886,0,0,0,-4.806,-4.8113,-4.8153,-4.8217,-4.8266,-4.831,-4.8345,-4.8367,-4.8456,-4.8333,-4.8546,-4.8561,-4.8602,-4.8632,-4.865,-4.8685,-4.845,-4.845,-4.8449,-4.8259,-4.8261,-4.8385,-4.8403,-4.8465,-4.8501,-4.8551,-4.8587,-4.8569,-4.862,-4.8649,-4.8797,-4.8832,-4.8846,-4.8882,-4.8686,-4.8686,-4.8686,-4.8686,-4.8464,-4.8539,-4.8516,-4.8627,-4.8629,-4.8722,-4.8762,-4.8747,-4.8833,-4.8774,-4.8811,-4.8744,-4.8869,-4.8901,-4.8691,-4.869,-4.869,-4.8689,-4.8689,-4.8591,-4.8628,-4.8655,-4.8747,-4.8819,-4.8834,-4.8918,-4.8917,-4.8916,-4.8952,-4.8982,-4.8981,-4.8978,-4.8968,-4.8968,-4.8969,-4.8969,-4.897,-4.897,-4.8712,-4.874,-4.8812,-4.8875,-4.8916,-4.897,-4.9009,-4.9049,-4.9093,-4.9085,-4.9085,-4.9062,-4.8883,-4.8836,-4.8978,-4.8976,-4.8975,-4.8975,-4.8974,-4.8913,-4.8868,-4.8979,-4.902,-4.9094,-4.9165,-4.9164,-4.9246,-4.9279,-4.932,-4.9291,-4.916,-4.9146,-4.9131,-4.9092,-4.9292,-4.9292,-4.9292,-4.9292,-4.9019,-4.9013,-4.9126,-4.9192,-4.9257,-4.9268,-4.9391,-4.9424,-4.9449,-4.947,-4.9442,-4.9391,-4.9377,-4.9371,-4.9352,-4.9315,-4.9567,-4.9567,-4.9567,-4.9142,-4.9143,-4.9248,-4.9274,-4.9333,-4.9382,-4.9498,-4.9574,-4.9594,-4.9578,-4.9485,-4.9474,-4.9392,-4.9366,-4.9343,-4.9313,-4.9246,0,0]},{"header":{"parameterUnit":"m.s-1","parameterCategory":1,"la1":30.2992,"la2":30.254,"lo1":-89.0895,"lo2":-89.0443,"dy":0.0025,"dx":0.0025,"nx":19,"ny":19,"refTime":"2026-05-19T09:00:00:Z","depth":0,"parameterNumber":3,"parameterNumberName":"V-component_of_WINDS"},"data":[0,0,0,3.3884,3.3885,3.397,3.397,3.4074,3.4075,0,0,0,0,0,0,0,0,0,0,0,3.3857,3.3858,3.3883,3.3886,3.397,3.397,3.4074,3.4075,0,0,0,0,0,0,0,0,0,0,0,3.3857,3.3858,3.3859,3.3886,3.397,3.397,3.4074,3.4011,0,0,0,0,0,0,0,0,0,0,3.393,3.3904,3.3858,3.3859,3.3886,3.397,3.397,3.4009,3.4015,3.4035,0,3.4053,0,3.4066,3.4082,3.4083,0,0,0,3.3886,3.3899,3.3923,3.3859,3.3887,3.3969,3.3932,3.4012,3.402,3.4044,3.4054,3.4058,3.4068,3.4083,3.4083,3.4199,3.42,0,0,3.3881,3.3871,3.3918,3.3928,3.3916,3.3929,3.3934,3.4017,3.4027,3.4055,3.4061,3.4069,3.4084,3.4084,3.4199,3.4199,0,0,0,3.3868,3.3868,3.389,3.3924,3.3939,3.3932,3.3938,3.4023,3.4032,3.4062,3.4071,3.4084,3.4085,3.4198,3.4199,3.4215,0,0,0,3.3865,3.386,3.3888,3.3883,3.3938,3.3982,3.3942,3.4026,3.4036,3.407,3.4084,3.4086,3.4198,3.4198,3.4213,3.4224,0,0,0,3.3852,3.3858,3.387,3.3882,3.3918,3.3981,3.3994,3.4028,3.4041,3.4083,3.4087,3.4197,3.4198,3.4212,3.4221,3.4252,0,0,0,3.3835,3.3881,3.387,3.3926,3.3917,3.3991,3.3994,3.4049,3.4087,3.4085,3.4198,3.4199,3.4212,3.422,3.4251,3.4276,3.4286,0,0,3.3888,3.3887,3.3921,3.3914,3.3987,3.3979,3.4055,3.4099,3.4111,3.4169,3.4172,3.4214,3.4221,3.4252,3.4345,3.4353,0,0,0,3.3934,3.3958,3.398,3.4017,3.4053,3.4085,3.4118,3.4135,3.4185,3.4139,3.4234,3.4238,3.4257,3.427,3.4276,3.4293,3.4204,3.4204,3.4204,3.3992,3.4009,3.4066,3.4093,3.4129,3.4165,3.4195,3.4223,3.4227,3.4249,3.4266,3.4321,3.4335,3.434,3.4358,3.4281,3.4281,3.4281,3.4281,3.4071,3.4108,3.4116,3.4174,3.4191,3.424,3.4277,3.4279,3.4326,3.4308,3.4325,3.4304,3.4348,3.4364,3.4283,3.4282,3.4282,3.4282,3.4282,3.4111,3.4131,3.4153,3.421,3.4252,3.4278,3.4325,3.4338,3.435,3.4367,3.4387,3.4387,3.4389,3.4376,3.4376,3.4377,3.4377,3.4377,3.4377,3.4143,3.4167,3.4205,3.425,3.4277,3.4314,3.4353,3.438,3.4413,3.4418,3.4419,3.4421,3.435,3.4332,3.438,3.438,3.4379,3.4379,3.4379,3.4216,3.4203,3.4262,3.4289,3.4345,3.4387,3.4404,3.4458,3.4482,3.4505,3.4505,3.4451,3.445,3.4445,3.443,3.4501,3.4501,3.4501,3.4501,3.4249,3.4252,3.4317,3.436,3.4404,3.4427,3.4495,3.4527,3.4557,3.4573,3.4565,3.4547,3.4541,3.4544,3.4537,3.4523,3.4616,3.4616,3.4616,3.4295,3.4303,3.4358,3.4389,3.4435,3.4473,3.4538,3.4587,3.4618,3.4621,3.4586,3.4581,3.4552,3.4541,3.4541,3.453,3.4505,0,0]}]]